Weather Roundup
Issued by NWS

Home | Current Version | Previous Version | Text Only | Print | Product List | Glossary On
Versions: 1 2 3 4 5 6 7 8 9 10 11 12 13 14 15 16 17 18 19 20 21 22 23 24 25 26 27 28 29 30 31 32 33 34 35 36 37 38 39 40 41 42 43 44 45 46 47 48 49 50
000
NZUS93 KARX 311710
HRRWXR

CURRENT HOURLY OBSERVATIONS ACROSS
MUCH OF THE UPPER MISSISSIPPI VALLEY
NATIONAL WEATHER SERVICE LA CROSSE WI
1200 PM CDT MON AUG 31 2015


...SOUTHEAST MINNESOTA...


CITY           SKY/WX    TMP DP  RH WIND       PRES   REMARKS
ROCHESTER      MOSUNNY   77  70  79 S15G22    30.00F
ROCHESTER/MAYO PTSUNNY   77  72  84 S12       30.00S
WINONA         CLOUDY    73  68  83 E5        30.00S
AUSTIN         SUNNY     79  72  78 S13       29.99S
ALBERT LEA     MOSUNNY   79  72  78 S12G18    29.97F
DODGE CENTER   SUNNY     75  70  83 S16       29.99S
PRESTON        MOSUNNY   77  69  76 S13G18    30.02F
OWATONNA       SUNNY     79  70  73 S10G16    29.96F
FARIBAULT      MOSUNNY   79  72  78 S14       29.96S
$$

...ELSEWHERE IN MINNESOTA...


CITY           SKY/WX    TMP DP  RH WIND       PRES   REMARKS
MINNEAPOLIS    MOSUNNY   79  69  71 S12       29.93F
INTNL FALLS    MOSUNNY   78  61  55 S10G22    29.74F
DULUTH         SUNNY     75  64  68 S15       29.89F
RED WING       PTSUNNY   79  70  73 SE6       29.96S
REDWOOD FALLS  SUNNY     79  69  71 S20       29.88F
MANKATO        MOSUNNY   75  70  83 S12G23    29.94S
WORTHINGTON    PTSUNNY   73  66  78 S17G24    29.94F
FAIRMONT       MOSUNNY   75  66  73 S12       29.95S
$$

...SOUTHWEST WISCONSIN...


CITY           SKY/WX    TMP DP  RH WIND       PRES   REMARKS
LA CROSSE      MOSUNNY   76  68  76 S8        30.01S
PRAIRIE DU CHI SUNNY     78  68  71 S5        30.03S
BOSCOBEL       MOSUNNY   81  70  69 VRB3      30.04S
LONE ROCK      PTSUNNY   79  69  71 SW8       30.05S
PLATTEVILLE    MOSUNNY   78  73  83 S8        30.06S
FORT MC COY    CLOUDY    75  65  72 S5        30.04F
CAMP DOUGLAS   CLOUDY    73  73 100 VRB6      30.04S
VIROQUA          N/A     76  70  81 S7        30.05F
WIS DELLS      MOSUNNY   78  66  68 SW6       30.05F
$$

...ELSEWHERE IN WISCONSIN...


CITY           SKY/WX    TMP DP  RH WIND       PRES   REMARKS
MILWAUKEE      CLOUDY    75  66  73 VRB3      30.08S
MADISON        PTSUNNY   77  67  71 S9        30.06S
GREEN BAY      CLOUDY    74  66  76 W9        30.04F
EAU CLAIRE     CLOUDY    73  67  81 S8        29.99S
BLACK RVR FLS  CLOUDY    74  67  77 S3        30.02F
MEDFORD        CLOUDY    68  66  93 SW6       30.04S
WAUSAU         CLOUDY    68  65  90 SW7       30.03F
WIS RAPIDS     CLOUDY    72  66  81 S6        30.06S
MARSHFIELD     CLOUDY    71  65  81 SW9       30.05S
RICE LAKE      CLOUDY    71  66  84 S9        29.99F
$$

...NORTHEAST IOWA...


CITY           SKY/WX    TMP DP  RH WIND       PRES   REMARKS
DECORAH        MOSUNNY   77  72  83 VRB7      30.02F
MASON CITY     PTSUNNY   80  73  79 S12       30.00F
CHARLES CITY   SUNNY     77  75  94 S12       30.02S
OELWEIN        SUNNY     79  73  83 S8        30.03F
$$

...ELSEWHERE IN IOWA...


CITY           SKY/WX    TMP DP  RH WIND       PRES   REMARKS
DES MOINES     MOSUNNY   83  72  69 S9        29.99F
IOWA CITY      SUNNY     83  72  69 SE12      30.04S
FORT DODGE     SUNNY     81  72  74 S12       29.99F
$$

...NORTHERN ILLINOIS...


CITY           SKY/WX    TMP DP  RH WIND       PRES   REMARKS
CHICAGO-OHARE  MOSUNNY   80  67  64 VRB3      30.08S
CHICAGO-MIDWAY MOSUNNY   84  68  58 CALM      30.07F
MOLINE         SUNNY     84  71  65 VRB7      30.04F
ROCKFORD       MOSUNNY   81  70  69 S8        30.08F
PEORIA         MOSUNNY   86  72  62 S6        30.06F HX  92
$$

NOTE: "FAIR" INDICATES FEW OR NO CLOUDS BELOW 12,000 FEET WITH NO
SIGNIFICANT WEATHER AND/OR OBSTRUCTIONS TO VISIBILITY. WIND
SPEEDS ARE IN MILES-PER-HOUR.



USA.gov is the U.S. government's official web portal to all federal, state and local government web resources and services.